GFSNGP_500_spd_000.txt.gz
Wind_Speed
8 10 12 13 15 19 21 23 23 25 27 26 23 24 27 31 36 39 41 43 46 50 51 55 59 63 66 70 75 80 83 86 87 88 90 91 94 92 80 72 65 54 46 58
12 13 15 17 18 21 24 27 29 31 32 32 33 33 34 37 39 41 42 45 48 51 55 59 61 63 68 74 78 81 85 87 90 90 91 95 93 84 71 63 57 47 51 54
17 19 21 22 23 25 29 29 31 34 36 37 38 36 36 38 39 41 44 47 51 54 59 62 63 67 72 75 80 84 86 88 89 90 94 93 82 69 59 53 41 37 37 36
22 24 25 27 26 29 32 31 35 37 38 41 40 39 42 43 43 45 48 50 53 57 59 62 67 71 74 77 81 83 85 88 90 93 92 81 68 56 51 39 32 30 27 30
25 27 29 31 31 33 35 35 39 39 44 44 44 44 46 47 47 49 50 51 55 57 61 65 68 71 74 78 80 82 86 90 91 90 82 67 56 45 35 28 29 30 28 31
30 32 34 34 35 36 38 38 41 43 45 45 45 46 48 49 50 51 51 54 57 61 65 67 70 74 77 80 81 86 88 90 89 81 70 57 47 37 30 31 32 31 31 34
34 36 37 39 40 41 41 43 48 49 48 48 48 48 49 51 51 51 52 56 60 64 66 70 74 78 79 80 85 87 88 90 83 72 58 49 40 33 31 32 33 32 32 36
39 39 41 41 43 44 45 45 48 52 49 50 52 50 52 52 50 53 56 59 63 66 70 75 78 78 78 83 86 85 87 85 74 60 50 42 34 29 30 33 32 31 33 37
40 40 41 45 46 46 46 47 54 53 53 55 53 54 55 53 54 57 60 63 67 71 75 76 76 78 82 84 83 84 82 76 66 53 44 36 30 29 31 33 30 31 33 37
43 42 43 45 46 50 52 56 59 56 56 56 55 57 57 57 58 61 65 68 71 74 74 73 75 79 82 82 84 82 75 69 58 46 37 32 28 28 31 31 30 32 33 36
47 45 48 46 47 51 56 59 56 55 56 56 57 57 58 59 61 64 69 72 74 73 71 73 77 78 79 82 81 75 68 62 51 38 33 29 29 29 31 32 31 31 32 35
42 42 43 44 47 51 55 56 55 55 55 56 59 59 60 62 66 70 72 73 72 70 72 76 77 78 82 81 77 68 61 52 44 33 30 29 29 29 30 32 31 30 32 32
42 42 43 48 51 53 55 54 54 54 55 59 60 60 63 67 68 71 73 72 70 71 75 77 78 82 80 76 69 61 53 43 35 31 28 28 28 27 30 31 29 29 32 30
42 44 48 50 52 53 53 53 53 54 57 59 60 62 65 66 70 72 71 70 71 73 75 79 80 78 76 69 60 53 43 35 31 28 26 25 26 27 28 27 28 30 30 31
45 48 50 53 54 54 54 55 56 56 59 60 61 64 66 69 72 72 69 69 71 75 79 79 76 74 69 61 53 45 35 29 27 25 26 27 27 27 28 26 27 28 30 32
47 49 50 51 53 53 53 53 56 58 59 61 65 68 71 73 71 68 69 72 75 78 78 75 73 67 60 53 46 39 31 27 26 27 28 27 26 25 24 25 28 29 30 33
47 50 50 49 45 46 50 55 58 60 63 66 69 71 71 69 67 67 72 76 77 77 74 72 65 58 53 46 40 35 31 28 28 28 27 24 21 22 24 27 28 28 29 31
47 48 50 50 51 53 54 57 61 64 67 69 69 68 66 65 67 72 75 76 74 74 70 63 57 51 46 40 36 32 30 28 27 26 23 19 20 23 26 27 27 26 28 30
49 49 49 49 51 53 57 61 63 65 67 67 64 63 64 69 74 75 74 73 72 66 59 54 51 46 40 37 34 30 28 26 24 22 21 22 24 26 28 28 26 26 27 28
51 50 51 53 56 57 58 60 63 65 63 61 62 65 71 74 74 72 70 69 64 57 52 49 46 41 37 35 32 29 26 24 22 22 23 24 26 28 28 27 26 25 26 26
52 53 55 55 54 56 60 64 62 60 59 63 69 73 73 70 69 68 64 58 55 52 47 45 42 37 33 31 30 28 27 26 25 25 27 28 29 29 29 27 25 23 24 24
53 52 52 54 58 60 57 57 57 61 67 70 69 66 66 65 63 59 58 55 51 47 44 42 39 35 30 27 27 26 26 26 27 29 30 31 30 30 28 27 25 23 23 22
48 52 56 55 53 53 56 61 65 66 64 64 64 64 63 61 58 56 52 49 48 43 40 39 37 33 28 25 25 25 25 26 28 29 30 30 31 30 28 28 27 24 23 23
52 50 51 54 56 58 59 60 60 61 61 62 61 61 61 57 53 53 50 46 44 41 38 38 37 33 28 26 28 29 29 30 31 31 32 32 32 32 30 29 28 26 24 24
52 51 53 54 55 57 58 57 58 60 58 59 60 61 59 54 53 52 46 45 44 41 39 39 39 37 34 34 34 34 35 36 36 36 36 36 35 33 32 30 29 28 25 25
50 53 56 57 57 57 58 58 56 55 56 57 58 56 53 53 56 53 46 45 45 42 41 40 40 39 37 36 37 38 40 40 40 40 40 39 37 35 33 31 30 28 26 26
55 56 55 55 56 56 55 55 57 56 57 55 52 49 51 53 56 51 46 45 45 42 40 39 39 38 37 37 37 38 39 39 39 39 38 37 35 34 34 34 31 30 29 27

GFSNGP_500_spd_003.txt.gz
Wind_Speed
13 14 15 16 16 16 16 18 19 20 22 25 27 29 32 34 36 37 39 41 44 46 49 51 54 57 59 61 63 69 72 76 79 83 87 89 91 95 96 98 89 69 56 51
18 18 19 19 21 22 21 23 24 23 25 27 29 33 35 38 40 41 43 45 47 49 52 53 54 57 60 63 68 71 75 80 84 87 88 90 94 96 98 88 69 52 44 38
22 22 24 22 25 27 26 25 28 28 28 30 33 37 40 41 42 43 46 48 49 51 52 53 55 58 62 67 70 73 79 83 84 86 89 95 95 95 85 67 51 41 36 33
27 27 30 26 27 30 31 30 31 34 34 34 38 41 43 45 47 48 50 50 52 53 54 54 56 61 65 68 72 77 82 83 84 88 93 95 94 85 68 52 44 38 35 35
33 31 33 29 29 33 35 34 35 37 37 37 41 44 46 50 49 50 50 52 56 55 53 55 59 63 67 71 76 80 81 83 88 93 95 93 86 72 55 44 38 34 35 36
35 37 38 33 35 38 39 37 39 40 41 41 42 46 47 50 52 52 53 56 56 54 56 59 62 66 71 75 78 79 82 87 91 94 91 87 75 59 47 40 34 32 34 35
40 42 42 39 40 41 42 42 41 42 43 43 44 49 52 52 53 54 56 58 56 57 59 62 67 71 74 77 78 80 84 88 93 91 87 76 64 51 41 35 31 32 34 35
42 44 46 42 45 44 43 44 45 46 45 44 49 52 53 55 55 55 58 59 58 60 63 67 70 74 76 77 79 81 86 91 89 86 77 67 55 42 36 31 30 31 34 35
43 43 44 45 47 45 46 47 47 47 45 48 52 55 56 56 56 57 60 60 61 64 67 70 74 77 76 77 80 84 89 88 84 79 68 59 47 36 33 31 31 32 34 36
44 43 44 46 47 46 47 48 48 48 51 53 54 57 57 57 58 60 61 61 64 66 68 73 76 76 76 79 83 88 86 82 78 68 60 51 39 34 33 32 32 32 34 36
46 44 45 44 43 44 46 47 48 51 52 54 56 57 58 58 59 61 61 62 65 68 72 75 75 75 77 82 87 85 81 77 67 61 51 41 34 33 32 31 30 31 34 34
43 42 44 43 44 46 47 48 50 53 54 56 56 58 58 59 60 62 63 65 69 73 75 74 73 74 81 87 85 81 76 67 59 52 42 35 32 31 29 28 29 30 31 31
41 40 40 42 45 46 48 50 52 53 55 57 57 56 58 58 62 64 66 69 73 76 74 72 73 80 87 85 81 76 66 59 51 43 37 33 28 27 28 31 30 28 30 31
37 42 44 44 48 50 51 51 52 53 55 55 52 54 58 60 64 67 68 71 75 73 70 73 80 85 83 79 73 65 58 52 44 38 34 31 30 30 29 27 27 29 30 33
44 47 49 52 52 52 51 50 50 52 50 48 51 56 59 63 65 66 70 73 70 69 74 81 83 81 79 71 63 58 52 44 39 35 33 32 32 29 26 24 26 29 32 32
52 53 50 48 49 50 50 50 53 51 48 52 58 60 61 64 66 70 72 67 68 75 82 80 79 77 67 61 57 52 45 39 35 32 31 30 28 26 23 24 28 31 32 29
48 47 46 47 47 48 50 49 47 44 52 58 58 60 64 66 69 68 64 70 77 79 76 76 71 64 60 56 53 46 39 37 32 29 28 27 25 23 24 27 30 30 30 29
44 47 47 47 47 49 49 48 51 54 55 56 58 63 65 67 62 63 72 74 74 74 74 66 62 59 56 53 48 41 37 33 30 27 26 25 23 24 26 29 31 30 29 27
46 46 46 47 47 47 48 51 53 56 56 58 60 63 60 58 66 71 70 71 71 69 66 61 60 56 52 48 44 38 34 31 29 26 26 26 27 28 29 30 30 30 29 27
54 50 49 51 51 52 52 51 53 56 58 58 57 56 62 68 68 67 67 68 68 66 61 59 57 52 47 43 40 36 33 30 28 27 28 29 29 30 30 30 30 30 29 27
52 51 51 53 52 54 55 52 53 54 60 58 60 65 65 65 66 66 66 64 64 63 57 57 52 48 43 38 38 36 32 29 27 25 25 26 27 28 29 28 27 28 28 28
52 54 53 50 51 54 55 59 62 57 60 64 63 63 63 63 64 63 63 64 63 58 57 53 48 45 41 37 36 34 32 29 28 28 27 28 29 30 31 31 30 29 29 30
50 51 52 53 57 59 56 56 60 61 61 62 64 64 63 63 61 61 61 61 59 55 58 51 45 43 40 38 37 35 34 34 33 33 34 34 34 34 35 35 35 33 31 31
51 53 56 56 55 57 60 57 57 61 64 63 63 64 62 61 61 62 61 58 55 55 57 50 44 41 40 37 37 36 35 35 35 37 37 38 38 39 39 39 38 35 32 31
51 53 54 52 52 54 57 60 63 64 62 61 60 59 62 62 61 58 56 54 54 55 57 52 44 41 40 37 35 35 35 36 37 37 38 39 39 39 40 40 39 36 34 32
46 50 55 58 60 61 61 61 60 59 59 57 57 60 59 61 59 55 53 53 53 54 55 51 44 41 39 35 33 34 36 37 38 39 40 38 37 36 35 34 34 34 35 35
50 52 54 56 58 58 58 60 59 56 58 61 59 59 61 59 57 55 53 52 52 53 52 48 44 41 38 33 33 35 36 37 38 38 37 36 35 34 33 32 32 33 33 36

GFSNGP_500_spd_006.txt.gz
Wind_Speed
18 18 18 18 19 19 21 21 22 23 23 26 25 26 27 30 33 36 40 42 45 47 49 51 52 55 59 58 59 60 63 67 71 74 77 80 83 87 91 98 98 95 82 65
22 21 21 22 22 23 25 27 28 28 27 29 30 31 33 35 37 40 42 45 48 51 53 53 55 57 58 58 59 62 65 69 73 76 79 82 86 89 98 99 95 84 67 52
27 27 28 27 24 28 29 31 32 32 33 34 33 34 35 38 40 42 44 47 50 55 56 55 56 59 58 58 60 63 69 72 75 78 81 86 90 97 98 93 84 70 54 43
32 31 35 28 29 32 35 36 34 36 39 39 39 39 39 42 43 44 48 50 52 56 55 55 58 59 58 60 63 68 71 75 78 81 84 88 95 97 93 83 70 57 44 38
36 36 38 37 34 37 39 40 37 42 44 44 43 43 42 46 44 48 50 51 53 53 54 56 59 58 59 63 67 70 74 78 81 83 85 94 94 90 84 71 59 45 37 33
37 40 43 41 39 41 44 45 43 46 46 46 46 47 47 48 48 52 54 52 53 54 54 58 60 60 63 66 69 73 78 79 80 83 92 93 89 84 72 60 49 38 34 32
37 41 45 43 44 44 47 48 50 49 48 48 49 50 49 49 50 54 55 55 55 55 57 59 61 62 64 68 73 77 78 78 82 91 93 87 82 71 61 52 41 36 33 33
38 42 46 44 46 47 49 49 50 50 50 50 51 50 50 50 53 56 57 56 56 58 59 61 63 64 67 72 78 78 77 80 90 92 88 80 70 61 52 44 36 34 34 33
41 42 44 47 49 50 49 49 49 50 50 50 49 50 51 54 56 58 57 58 58 60 61 63 66 68 72 76 79 76 79 89 90 88 80 68 61 53 44 38 35 34 33 31
42 42 45 48 49 48 49 48 48 48 48 48 50 52 55 57 58 58 60 59 59 60 62 66 70 72 75 79 74 80 87 88 88 79 68 61 53 45 39 36 33 31 30 31
44 42 45 44 44 45 46 46 46 47 48 49 52 55 55 56 57 58 58 58 59 62 64 69 71 74 78 73 80 84 85 85 77 67 62 55 45 38 35 32 30 30 31 31
43 42 43 42 42 43 43 43 46 49 51 54 56 55 55 55 55 56 55 59 62 65 68 71 73 75 71 79 81 82 83 74 66 62 58 48 39 34 33 33 33 30 29 28
41 41 41 41 42 42 44 48 51 54 56 57 56 55 55 55 54 56 57 60 65 67 70 72 72 70 78 79 81 82 72 66 61 59 52 43 37 33 32 33 31 27 26 26
40 43 43 44 47 50 51 54 56 55 55 55 54 55 56 55 58 61 61 63 68 70 71 70 70 76 78 79 79 71 67 61 58 54 45 39 35 32 31 29 27 25 26 29
43 46 48 50 52 54 56 54 51 51 52 52 52 53 56 56 60 63 63 68 71 72 69 69 75 76 78 77 71 65 63 57 55 48 41 36 32 29 28 26 23 24 28 30
47 50 51 52 51 49 48 49 53 53 51 49 47 55 55 59 61 66 66 68 72 67 68 73 74 75 75 71 64 62 59 55 50 42 37 33 30 26 25 24 25 27 29 30
46 49 48 48 48 48 51 53 53 53 54 53 51 55 57 60 60 63 69 71 65 68 71 72 74 73 69 66 61 60 56 51 45 39 35 32 30 26 26 27 28 29 30 29
47 49 51 53 54 55 57 57 56 55 54 53 50 55 61 69 71 69 69 65 68 70 71 73 72 68 67 62 59 58 51 46 42 37 34 32 30 28 27 28 30 32 31 28
50 52 53 54 55 55 55 56 56 55 53 52 55 60 65 64 66 63 65 66 68 71 69 70 67 66 64 59 59 55 46 42 39 36 33 31 29 27 28 29 29 29 27 26
54 55 59 58 58 57 55 54 52 51 54 57 58 56 58 63 64 65 66 66 68 68 67 66 67 65 62 57 58 52 45 40 37 35 33 31 29 28 27 27 27 29 29 29
61 59 58 56 55 54 50 51 53 55 57 57 58 58 63 63 63 66 68 66 64 66 65 66 66 62 58 56 55 51 44 40 37 35 34 34 33 32 32 32 31 31 32 32
52 53 55 54 50 49 50 53 55 55 56 59 61 61 61 63 66 65 64 64 62 65 65 64 61 57 55 54 54 49 43 41 38 36 35 35 35 36 36 35 35 35 35 34
51 51 51 51 51 52 53 56 58 60 57 59 61 63 65 64 65 65 64 62 63 63 61 60 56 55 54 53 52 48 42 40 38 35 35 35 35 36 37 38 37 37 37 37
49 49 51 53 56 56 56 55 55 57 59 61 64 66 68 66 63 62 62 62 60 61 60 56 53 52 52 51 50 46 41 39 37 34 34 34 35 36 37 37 36 37 36 36
53 55 56 54 51 50 48 50 55 59 61 63 64 64 65 64 62 59 60 59 60 59 57 53 51 51 50 50 48 45 41 38 35 33 33 34 35 36 36 36 35 34 35 34
51 48 47 47 47 50 55 58 60 63 64 63 62 62 61 63 64 63 61 61 60 59 56 54 52 51 50 48 46 44 41 39 36 34 34 35 36 37 37 36 36 35 35 34
45 46 48 51 55 58 62 66 68 68 69 70 67 66 64 62 62 62 61 60 59 58 57 55 53 51 50 48 46 43 41 40 37 36 35 36 38 39 39 40 39 38 37 37

GFSNGP_500_spd_009.txt.gz
Wind_Speed
20 21 20 20 20 20 19 21 23 23 24 31 30 30 31 33 35 37 39 41 42 42 44 47 50 52 52 55 56 58 61 61 61 63 67 70 74 78 81 85 91 98 97 88
22 22 23 24 23 22 25 26 28 30 28 35 36 37 36 37 40 42 44 45 47 47 48 52 54 54 55 56 57 59 61 60 62 65 69 73 76 79 83 91 97 96 86 72
25 26 28 30 23 27 30 31 34 34 36 38 39 40 41 42 44 45 47 49 50 51 52 55 55 56 57 58 59 61 60 62 65 68 73 76 79 82 89 95 95 83 71 61
28 30 34 28 28 32 36 37 39 40 41 43 44 45 44 45 47 48 50 52 53 53 54 56 57 58 58 58 60 60 61 64 68 72 77 77 80 87 94 93 80 71 62 51
30 31 34 34 34 37 40 42 44 45 47 48 49 49 48 50 49 51 52 53 53 53 55 56 58 58 58 59 60 61 64 69 72 77 77 79 85 91 90 79 71 64 53 43
28 32 34 34 37 39 42 45 44 48 49 50 51 52 50 51 52 53 53 53 53 54 56 57 58 58 58 58 61 64 69 73 75 78 79 85 90 88 79 72 66 55 45 38
28 32 34 35 38 39 42 45 47 48 50 50 51 51 51 52 52 52 51 52 53 55 56 58 58 58 57 61 64 66 72 75 77 78 84 89 86 79 72 67 58 47 40 35
31 34 39 39 41 43 46 48 50 50 50 50 50 50 51 50 49 50 51 52 54 55 58 58 57 57 60 64 67 71 73 77 77 82 86 86 77 72 66 61 48 40 36 32
36 37 40 43 45 47 47 48 48 48 48 48 48 48 48 48 50 51 54 57 57 58 59 59 58 60 63 66 70 73 74 76 81 84 85 77 71 67 61 51 41 35 33 32
40 38 41 44 45 44 45 45 46 47 47 47 47 47 48 51 54 58 59 57 58 60 60 59 61 63 64 67 70 73 75 80 82 83 78 69 68 62 53 43 36 33 33 32
40 39 42 40 40 41 43 44 44 45 45 45 46 50 53 56 56 56 56 54 58 62 59 61 65 68 66 70 73 75 78 80 82 79 70 65 63 55 45 38 34 33 32 28
41 39 40 38 39 41 41 41 43 44 46 49 52 54 54 53 53 54 56 60 59 57 62 66 67 69 68 73 76 76 78 81 78 72 64 62 56 48 40 36 34 31 27 23
39 40 40 41 43 43 44 45 47 49 51 53 55 53 51 54 56 53 55 59 61 63 67 68 68 63 70 76 74 76 77 75 71 66 62 58 51 43 37 33 31 28 22 21
41 42 42 43 44 45 47 49 51 53 53 52 51 51 54 57 55 56 56 60 59 67 69 63 62 67 76 76 75 75 74 69 66 61 59 55 47 40 35 30 27 24 22 23
41 43 44 46 48 49 51 51 51 51 52 53 55 56 57 56 56 53 59 64 68 69 61 60 64 76 78 76 73 72 68 65 61 58 56 50 44 38 33 30 26 24 25 25
42 44 45 47 47 48 51 52 53 55 56 57 59 59 58 57 54 52 57 65 70 65 66 69 72 78 75 73 69 66 64 62 58 55 53 46 41 36 32 29 27 27 27 27
42 42 45 48 50 52 52 54 56 56 57 58 57 57 58 57 54 55 61 69 71 68 69 72 70 71 72 69 65 62 62 59 55 53 49 44 38 34 30 28 27 27 27 27
43 47 49 51 52 53 55 57 58 61 59 58 58 55 53 53 57 62 66 64 65 69 71 73 72 70 68 64 62 62 60 57 52 51 47 41 36 33 29 28 27 25 25 26
47 49 51 52 54 57 58 56 56 57 58 56 51 51 54 53 54 57 62 66 67 68 70 70 68 65 61 60 61 60 59 55 51 50 46 39 35 33 31 29 29 28 28 28
54 56 58 60 59 57 57 57 56 54 50 50 52 54 56 59 61 63 65 67 68 67 66 66 64 60 60 61 60 60 57 52 49 49 45 39 36 34 34 32 31 31 32 32
62 60 60 59 56 55 53 54 54 53 54 56 59 61 61 61 61 61 61 62 65 66 65 64 62 60 60 58 57 56 52 50 48 48 45 39 37 35 33 33 32 31 32 32
57 56 55 55 55 55 54 55 57 54 54 57 60 58 54 55 59 62 66 69 68 67 65 63 61 61 58 56 55 52 50 48 48 47 44 38 37 35 33 32 31 31 32 33
53 53 53 52 53 54 55 57 59 58 57 57 54 55 57 60 65 68 68 68 67 66 65 64 63 61 58 55 52 50 49 48 46 45 42 38 35 34 33 32 31 32 32 32
54 56 58 60 61 57 54 52 52 49 49 52 57 60 65 67 69 71 70 67 65 64 63 62 61 59 57 53 51 50 49 47 45 43 41 38 34 34 33 32 32 32 33 32
54 54 53 54 53 51 51 51 53 54 55 59 62 67 70 73 74 70 69 70 72 69 67 64 62 59 57 54 52 51 49 47 45 42 40 38 35 35 35 34 34 35 35 35
55 54 54 52 52 51 53 55 58 59 61 64 68 72 75 75 73 74 73 69 66 63 62 61 58 57 56 54 52 51 49 47 44 43 40 38 37 36 35 35 35 37 38 38
50 49 49 50 52 53 56 59 61 63 67 71 74 77 76 76 75 70 68 68 67 66 64 62 59 58 57 55 52 50 49 46 44 42 40 40 39 38 39 42 40 39 40 40

GFSNGP_500_spd_012.txt.gz
Wind_Speed
17 19 21 20 21 21 21 21 22 21 23 26 32 31 33 35 38 39 42 43 45 48 50 53 54 55 56 57 58 59 60 62 63 62 63 63 66 71 76 79 84 86 90 98
18 19 22 23 23 22 24 25 27 30 28 34 36 38 38 40 42 44 46 47 49 51 53 55 56 57 58 57 58 59 61 62 62 61 62 65 68 74 79 83 87 90 96 87
19 21 24 26 21 25 28 29 32 36 37 39 42 44 46 47 48 49 50 51 51 53 55 57 58 58 56 57 58 60 62 61 60 61 65 67 72 78 80 87 88 93 86 78
20 23 28 23 25 28 32 33 37 41 44 46 49 50 50 51 52 51 52 52 52 54 56 57 56 54 56 58 59 61 60 58 60 64 67 72 76 78 84 87 92 88 78 72
24 25 26 28 29 31 34 37 40 44 47 49 51 52 51 53 52 53 53 53 54 54 54 53 54 55 56 61 60 61 59 60 63 66 68 72 75 80 86 90 90 80 73 66
22 25 26 25 28 30 33 37 38 41 45 47 49 50 52 53 53 53 52 53 53 51 51 52 54 56 56 57 60 60 61 63 67 68 70 75 78 83 88 90 81 74 69 57
22 25 27 29 30 32 36 40 42 44 46 48 49 51 51 51 50 49 48 47 47 49 52 55 56 58 54 58 61 61 63 67 70 70 74 78 83 86 86 83 75 68 61 49
26 29 33 34 38 40 42 44 45 47 48 48 48 47 47 46 46 44 43 46 49 54 56 55 56 54 59 63 64 64 67 71 72 72 75 82 85 84 82 76 68 61 51 43
31 33 38 42 44 45 45 44 44 44 45 45 45 45 44 43 43 44 49 52 55 55 55 56 57 58 58 65 63 65 70 73 73 73 78 85 84 83 77 67 61 54 44 38
37 38 43 46 45 43 42 42 42 42 43 44 43 42 43 46 49 52 54 57 55 54 56 60 62 59 58 63 69 70 72 73 75 76 82 83 85 78 68 60 54 47 39 36
42 43 44 40 39 40 40 41 41 42 43 43 44 45 48 50 52 54 55 53 54 56 59 59 59 66 67 75 73 73 71 73 75 73 76 79 77 69 60 55 49 41 36 33
41 39 38 37 38 40 41 42 42 43 44 44 46 48 50 50 50 50 52 54 57 59 58 61 66 68 70 72 69 68 70 72 72 72 74 71 67 60 54 51 44 38 33 30
37 37 39 41 42 42 43 43 43 44 46 47 48 48 50 51 52 54 56 58 60 58 57 60 69 69 70 68 67 68 71 75 76 70 68 64 60 55 50 46 41 35 32 28
38 40 41 42 44 46 47 46 47 47 46 47 50 52 54 56 58 59 59 59 58 54 56 63 69 69 70 73 70 71 76 75 68 64 61 58 55 51 48 44 39 34 31 29
37 41 45 46 47 47 47 46 45 48 51 53 55 57 58 59 60 63 60 56 54 56 60 66 71 73 71 69 72 74 69 66 63 59 57 55 53 50 47 42 36 33 30 28
43 43 44 44 44 44 46 48 51 52 55 57 59 60 62 64 63 61 58 56 56 61 64 68 72 72 73 72 69 67 66 63 59 56 54 54 51 48 45 41 35 32 29 27
43 43 43 44 45 47 50 53 56 59 61 63 65 64 61 60 59 58 55 55 59 63 65 66 67 67 65 66 68 66 64 60 56 54 53 53 49 46 43 40 35 32 29 27
40 41 43 46 48 51 55 58 60 62 61 62 60 60 57 57 58 56 58 60 60 62 65 66 65 64 64 66 66 63 59 56 56 52 52 52 49 46 43 39 35 33 31 30
43 46 49 52 55 57 59 60 59 59 57 56 56 53 50 51 54 58 62 64 65 64 60 57 59 64 68 69 67 63 60 58 56 54 52 51 47 45 43 39 35 33 33 32
50 53 55 57 57 57 56 56 53 53 54 53 53 55 57 57 57 57 60 54 55 56 58 64 69 71 70 66 63 62 60 58 56 53 51 48 46 44 43 39 35 33 33 32
55 56 57 56 55 53 52 52 52 55 58 59 61 59 56 52 50 51 52 55 59 63 67 70 73 70 65 63 62 60 59 56 54 51 48 46 45 43 41 38 35 33 33 32
54 53 50 50 50 52 54 56 57 58 59 58 55 53 53 53 54 56 59 62 65 69 72 75 72 69 69 66 63 60 57 55 52 48 46 44 43 42 40 37 35 33 33 33
45 46 49 52 54 55 57 58 58 58 56 54 55 55 56 58 60 63 63 67 71 75 77 76 73 69 64 61 59 57 54 51 49 48 46 44 43 41 39 37 35 33 33 33
49 51 54 56 57 58 59 59 58 55 53 54 55 57 60 61 62 66 68 72 76 77 78 73 70 68 67 65 62 60 58 54 51 48 46 45 43 41 39 36 35 34 34 35
53 56 57 58 59 58 56 53 51 50 52 54 56 59 61 63 66 68 74 77 79 77 73 71 68 64 60 58 56 55 55 52 49 48 47 45 43 41 39 37 36 35 34 35
57 57 58 57 55 52 50 49 50 52 53 55 59 61 64 68 72 77 80 81 76 72 70 66 62 58 55 52 49 48 48 48 46 45 45 44 42 41 39 38 37 37 37 37
56 55 52 49 49 49 49 51 53 55 57 59 62 67 71 76 79 82 79 74 71 68 64 59 55 52 50 48 47 46 46 45 43 43 43 42 42 40 39 39 38 38 38 38

GFSNGP_500_spd_015.txt.gz
Wind_Speed
19 19 19 20 19 21 22 19 23 18 26 24 32 34 34 36 37 40 43 45 48 50 51 53 55 56 57 57 59 60 60 59 59 60 61 64 64 64 66 69 72 75 78 83
18 19 19 21 21 21 21 22 25 26 30 30 34 38 40 43 45 47 49 50 51 52 54 55 55 55 56 58 58 56 56 58 59 60 61 63 63 65 69 72 75 77 80 89
19 17 20 20 18 22 23 25 27 31 31 39 40 43 45 49 51 51 52 53 53 53 53 54 55 55 55 54 53 54 57 58 59 59 63 63 64 67 72 76 78 78 81 89
17 19 23 19 19 23 27 28 31 35 36 43 45 47 50 51 53 53 53 53 53 53 53 53 53 52 50 53 55 58 60 59 56 59 63 66 67 70 76 79 79 81 83 91
20 20 22 21 22 24 27 29 35 36 39 43 46 47 48 52 51 53 54 54 53 52 51 49 48 50 52 57 59 58 59 59 63 71 73 75 71 73 78 80 78 82 85 92
17 19 20 21 21 23 26 30 33 35 38 42 45 48 49 52 53 53 52 51 49 49 47 47 49 53 57 57 55 56 59 58 65 71 79 81 80 80 79 79 81 80 85 81
15 17 19 21 24 26 31 35 37 40 43 45 46 48 48 48 49 48 47 46 44 45 47 51 54 56 54 55 60 59 63 70 67 75 82 85 85 76 77 74 76 85 81 74
20 23 26 27 30 33 36 39 42 45 47 47 46 46 46 46 46 45 44 44 44 48 51 53 55 52 54 57 58 59 71 70 75 79 81 81 71 76 77 80 77 77 71 62
26 29 32 34 36 39 41 44 45 46 44 46 46 46 47 47 45 45 47 48 50 52 51 52 53 54 56 58 61 67 72 82 85 88 74 68 75 75 76 74 70 65 61 56
31 33 37 39 41 43 45 45 44 43 43 45 45 46 46 47 46 47 49 50 50 52 54 56 58 59 60 62 62 62 76 87 81 70 71 73 72 70 69 70 63 58 54 50
36 37 41 41 45 43 45 43 41 43 45 45 45 46 47 48 48 49 49 51 53 55 57 59 59 62 61 63 67 77 81 78 75 73 74 71 68 67 64 58 55 54 50 46
40 43 42 44 44 40 41 43 44 44 46 47 47 47 48 47 48 51 54 56 58 60 60 62 60 62 59 60 71 77 75 76 77 74 71 69 66 60 55 53 53 51 48 44
42 42 42 41 42 43 44 43 45 47 48 47 46 45 48 51 54 57 59 60 62 63 64 62 57 59 67 71 72 73 75 76 72 69 67 65 60 56 52 51 50 48 45 41
39 38 42 42 44 44 45 47 48 47 46 46 47 50 53 55 58 60 62 64 64 63 61 57 56 58 62 67 71 74 76 70 64 61 63 62 58 55 51 50 48 46 44 39
38 40 42 44 46 47 48 47 46 46 47 48 51 54 57 60 62 64 64 63 62 59 55 55 57 61 65 69 71 66 60 58 62 66 67 62 55 52 51 50 49 46 43 39
41 43 44 45 46 45 45 45 46 48 50 54 57 60 63 65 64 63 62 60 57 55 56 58 60 66 67 63 61 58 60 62 67 69 64 58 55 54 52 50 49 45 42 39
45 46 45 43 43 42 44 47 49 52 56 60 62 62 62 61 60 59 58 57 57 59 59 61 63 63 60 57 58 62 63 66 72 67 60 57 54 52 50 49 47 44 41 39
42 41 40 41 44 46 48 52 56 58 60 60 59 59 57 57 57 57 58 60 58 59 57 56 55 55 59 60 63 64 67 71 68 65 62 59 56 52 50 48 46 43 41 39
41 42 44 46 49 52 55 57 57 58 57 56 54 55 56 56 57 57 57 57 56 54 54 57 58 59 62 65 67 70 71 70 67 64 61 58 55 53 50 46 44 42 40 38
42 45 48 51 53 54 55 56 53 50 51 53 55 58 58 58 59 59 56 53 56 57 58 61 64 65 64 66 70 73 71 67 64 61 56 53 50 47 45 44 42 40 39 37
48 50 51 52 54 53 50 47 49 52 55 57 59 60 62 61 59 56 56 56 58 60 63 63 63 66 70 73 76 75 71 67 64 62 58 55 52 49 46 43 41 40 38 36
51 52 53 52 48 47 49 51 54 57 59 61 62 63 62 58 55 54 56 57 59 61 64 66 69 73 76 79 78 72 67 65 62 61 59 56 52 49 47 44 41 39 37 36
53 52 49 47 48 50 53 57 59 60 62 63 62 60 57 55 54 55 56 60 62 64 68 72 76 79 80 75 71 67 63 58 56 55 53 52 49 48 46 45 42 40 38 37
49 48 49 50 53 57 59 61 61 62 62 61 59 56 55 55 57 60 62 63 67 71 76 79 80 78 73 68 63 59 56 52 50 50 49 48 44 45 45 44 42 41 39 38
48 50 53 56 59 60 61 61 61 59 57 57 56 56 57 60 62 64 67 70 74 78 80 79 74 69 63 59 54 52 50 48 47 46 46 46 44 41 41 42 41 41 40 39
54 57 59 61 61 60 59 57 54 55 56 57 58 59 62 64 67 70 72 76 79 79 76 70 64 59 55 54 52 50 49 48 47 45 45 45 44 43 43 42 40 40 39 39
60 61 60 59 55 53 51 52 54 56 56 58 60 62 65 68 72 74 76 77 75 71 66 60 56 54 54 54 54 53 51 50 49 48 47 46 45 44 44 43 40 39 39 39

GFSNGP_500_spd_021.txt.gz
Wind_Speed
24 20 24 23 16 18 19 20 18 11 16 14 22 25 31 35 34 35 37 42 47 48 46 46 50 49 49 51 53 54 50 50 51 52 53 56 59 58 58 61 64 65 66 70
26 25 26 25 23 24 20 17 18 16 18 18 24 29 33 36 38 39 43 44 47 49 52 53 48 50 50 53 52 50 49 49 53 55 56 58 57 59 62 66 68 73 82 88
23 23 24 23 13 21 18 19 20 20 22 24 29 32 33 36 38 40 44 44 44 47 50 53 55 54 50 50 49 48 50 53 55 55 56 56 59 64 65 67 69 82 85 87
23 24 25 16 19 16 16 20 22 24 25 27 30 33 37 39 40 41 44 46 48 50 51 50 48 47 47 48 49 51 53 54 53 55 58 62 64 66 69 69 70 78 81 80
24 24 20 19 18 17 19 23 23 24 27 28 31 34 37 40 42 45 48 50 51 49 45 44 44 45 47 49 51 52 52 54 57 59 61 65 64 68 76 82 80 79 76 74
22 21 19 20 19 18 21 24 21 23 26 29 31 34 37 41 45 47 48 46 46 43 45 46 48 49 49 50 49 52 54 57 60 63 61 65 66 70 75 77 78 78 74 75
15 16 17 17 15 17 18 20 21 24 27 30 34 38 41 44 45 46 42 43 47 45 47 49 49 49 48 50 53 56 58 62 64 66 65 66 69 74 70 69 70 72 75 62
10 11 12 13 15 17 20 22 25 29 33 36 39 42 43 46 45 42 41 42 45 47 48 47 47 46 49 51 55 59 61 66 67 66 65 64 63 66 66 68 71 70 57 54
12 13 16 17 20 21 24 27 31 35 37 41 43 44 45 43 42 44 44 45 47 47 45 44 46 49 52 56 60 61 63 64 65 65 65 64 64 64 67 72 64 55 53 54
17 20 22 25 28 30 32 33 36 39 43 44 45 43 43 45 46 46 48 49 47 45 46 48 51 55 59 61 62 62 62 63 64 65 65 63 63 66 65 56 54 55 55 57
24 28 31 34 36 39 41 42 43 45 45 45 43 43 44 46 47 49 50 48 47 48 50 53 58 61 62 62 61 60 62 65 67 68 68 66 66 57 54 55 56 58 58 58
32 32 34 37 40 43 45 47 48 49 47 45 45 45 47 49 50 50 48 47 48 52 56 59 62 62 61 60 61 63 66 68 69 68 65 62 57 56 59 58 58 57 59 61
38 39 41 42 45 47 48 49 48 48 46 46 47 49 51 52 50 47 47 50 54 57 60 62 61 59 59 61 63 66 68 69 68 65 61 59 59 57 59 59 58 60 62 62
43 45 45 46 47 49 50 50 49 47 47 49 51 53 52 49 47 49 52 56 59 61 62 60 58 61 63 66 67 68 69 67 64 62 61 60 61 62 60 59 60 61 65 65
44 46 48 49 50 51 51 49 47 48 49 52 52 51 48 49 51 54 57 60 62 64 61 59 61 65 67 68 68 69 68 65 62 60 60 61 61 61 62 63 65 66 66 63
45 46 47 50 52 52 50 49 50 50 52 53 52 51 52 53 56 59 61 63 64 61 59 62 66 69 69 69 69 68 65 62 61 60 60 62 64 65 67 70 71 71 67 61
48 48 49 50 50 49 50 50 51 53 54 53 52 53 55 57 60 61 63 63 61 60 63 66 69 70 69 69 68 66 62 60 61 63 64 65 68 70 73 75 74 72 66 60
48 49 50 50 51 51 53 54 55 54 52 51 53 56 59 59 60 61 60 61 62 65 69 71 72 71 70 70 66 63 63 62 62 64 66 69 73 76 76 72 68 64 63 55
46 47 49 51 51 53 55 56 52 50 51 56 59 59 59 60 60 59 61 63 66 70 72 73 70 69 68 66 65 64 63 64 66 70 73 75 76 73 67 62 56 47 55 55
47 50 51 52 54 55 51 48 50 54 58 59 58 60 59 59 59 62 65 68 71 73 74 72 70 68 64 62 63 65 69 71 73 75 75 72 68 62 56 52 48 43 52 51
50 52 52 50 47 47 49 53 57 60 59 59 58 58 58 60 62 66 68 71 72 70 68 66 62 61 64 68 70 71 72 74 75 72 67 64 57 51 49 49 47 46 47 48
47 45 44 45 48 50 53 59 60 59 57 56 56 58 61 64 67 70 72 71 68 66 64 60 65 69 69 68 70 74 74 71 68 65 60 54 52 51 51 50 49 47 46 47
40 44 46 50 55 58 58 57 56 55 55 57 59 62 65 68 69 68 66 63 63 62 63 65 71 73 73 75 75 72 69 66 63 59 55 53 53 53 53 51 49 47 47 46
51 53 58 60 57 55 54 55 55 57 59 62 64 67 68 65 63 61 62 64 63 65 68 74 75 75 78 75 70 68 66 62 58 56 56 56 56 56 56 53 50 47 46 46
59 58 55 54 53 54 56 58 59 62 65 67 68 68 62 58 58 59 62 64 68 71 76 78 79 78 73 70 68 65 61 58 56 57 58 58 59 59 56 52 49 47 45 44
52 53 54 55 56 59 61 64 66 68 67 63 60 57 54 57 61 65 66 70 75 78 79 79 76 71 68 66 62 59 56 56 57 58 58 61 61 57 50 45 42 41 42 42
54 56 58 61 64 66 67 67 65 63 58 53 51 53 57 61 64 68 71 74 77 77 75 72 69 65 61 59 56 54 55 56 57 58 61 60 54 48 42 37 34 32 32 34

GFSNGP_500_spd_024.txt.gz
Wind_Speed
22 21 22 25 24 24 26 22 23 15 20 16 22 23 25 26 27 25 25 27 32 35 36 40 44 47 48 44 40 41 48 49 51 50 51 52 53 54 56 59 63 66 69 72
26 25 27 30 31 23 22 24 24 18 18 21 26 26 25 26 29 30 32 33 36 40 43 46 48 50 41 44 47 49 51 51 50 50 51 52 53 56 59 62 67 68 73 74
32 32 33 34 25 26 24 28 26 23 20 22 25 26 27 28 31 34 37 39 41 42 44 47 49 50 47 48 49 50 50 50 50 50 51 54 57 61 66 68 66 70 74 78
31 30 33 21 24 25 22 23 23 23 22 23 25 26 28 31 34 37 38 41 43 45 47 49 48 47 48 50 49 50 50 49 48 51 55 58 64 67 70 69 67 72 74 78
30 28 28 22 22 23 22 23 22 22 22 24 26 28 30 32 34 38 41 44 46 48 49 48 47 48 49 47 49 49 47 47 51 56 58 65 57 70 80 73 75 73 75 77
25 25 25 19 21 22 23 24 22 22 24 26 26 27 31 34 37 41 44 46 48 50 49 47 48 47 48 48 48 46 48 52 55 50 58 69 61 60 77 75 73 74 75 70
22 22 21 18 20 22 23 20 21 21 23 24 27 30 34 37 40 43 46 48 48 46 48 49 49 51 50 48 46 49 52 55 57 58 61 62 62 64 69 72 72 71 66 67
18 17 15 16 17 17 16 17 18 21 24 28 31 34 38 41 43 45 45 45 45 47 47 49 51 50 47 46 47 51 55 58 58 59 60 60 62 66 69 71 69 65 61 52
14 12 14 14 13 14 15 18 23 27 30 34 36 38 41 44 45 46 46 46 47 48 50 51 51 48 47 48 52 55 57 59 59 58 60 62 65 68 71 70 65 59 56 55
16 15 16 17 17 20 23 26 29 32 35 38 40 43 45 47 47 48 48 48 50 52 53 52 49 48 50 54 57 59 60 59 59 60 63 67 70 72 71 66 61 58 57 58
20 20 24 25 28 29 31 34 36 39 42 44 45 46 47 48 48 48 49 50 52 53 51 49 49 52 56 58 60 63 61 60 62 65 69 72 73 71 68 63 60 59 58 61
26 28 29 31 33 36 39 41 43 46 47 49 49 50 51 51 49 50 52 54 53 51 50 51 54 57 60 62 64 61 61 64 68 70 72 73 72 69 66 63 60 60 61 60
31 32 34 35 37 40 43 45 47 49 49 50 51 53 53 51 52 53 54 54 53 52 54 55 58 61 63 63 61 62 65 68 71 73 74 73 71 69 65 60 61 62 65 64
37 38 39 41 42 45 48 49 50 50 51 53 54 52 52 52 54 55 55 55 55 55 57 60 62 63 63 63 64 67 70 73 74 74 73 72 69 66 64 62 60 58 62 68
43 44 46 47 48 50 51 51 51 52 53 53 53 52 52 54 56 57 56 55 55 58 61 63 64 64 64 66 68 72 74 76 77 76 74 72 68 65 64 64 63 63 65 68
48 50 50 50 51 50 52 54 53 53 54 54 53 53 55 57 57 55 54 56 61 63 63 64 64 65 67 70 73 75 78 78 77 75 71 66 65 65 65 67 69 71 72 70
49 50 49 49 50 54 55 54 54 53 54 54 54 56 58 55 53 54 59 63 62 62 62 63 64 68 71 74 77 79 78 77 74 69 68 68 69 71 71 73 74 73 69 63
46 44 51 53 58 56 53 52 53 54 55 56 57 55 52 53 56 62 63 63 63 62 63 65 69 72 76 78 80 78 76 71 68 70 68 67 69 72 74 72 67 63 59 51
46 50 54 55 53 51 51 52 54 56 57 54 51 52 56 60 63 64 62 61 62 63 66 70 73 76 76 76 74 72 67 68 72 72 71 73 74 71 67 64 61 54 47 46
52 51 50 50 50 51 53 56 58 55 51 51 54 57 63 65 66 61 60 62 64 67 69 72 75 74 73 71 69 68 69 73 74 75 75 72 67 65 62 59 53 49 46 46
43 44 46 50 52 55 55 54 51 51 54 57 60 64 67 63 60 61 63 65 68 71 74 73 69 69 68 67 70 73 75 77 78 74 69 66 66 62 57 53 51 50 48 47
45 48 50 51 51 53 50 48 51 55 59 63 65 62 60 60 62 63 66 69 71 70 67 62 63 67 69 72 74 76 78 75 71 69 68 64 60 56 53 53 53 52 51 50
50 50 50 52 52 49 50 54 59 63 63 61 59 60 61 63 65 69 71 70 67 61 60 64 68 70 72 73 77 77 74 73 69 64 61 59 56 55 56 56 55 53 53 53
51 52 52 53 55 57 60 63 63 61 59 60 61 63 64 66 67 67 63 60 58 60 65 67 73 74 76 78 78 76 75 68 62 61 60 58 57 58 58 56 58 57 52 48
54 56 57 59 61 61 59 59 59 59 61 63 64 66 66 64 61 60 58 60 62 66 70 74 76 77 79 79 78 76 71 62 60 60 58 56 57 57 59 59 55 49 44 40
57 59 59 57 56 57 58 60 62 63 64 66 66 65 60 58 58 60 62 64 67 72 74 76 78 81 82 82 76 68 61 58 58 56 54 55 55 58 56 51 44 38 34 32
54 55 55 57 59 61 64 66 68 68 67 65 62 59 57 59 60 62 66 70 72 74 76 79 81 83 84 72 62 58 55 54 52 51 52 52 55 51 46 39 34 31 29 28

GFSNGP_500_spd_027.txt.gz
Wind_Speed
23 22 21 21 23 24 23 24 25 23 24 22 25 27 26 25 21 21 21 22 25 28 28 30 32 34 36 36 39 45 48 48 48 51 51 52 51 49 50 53 56 60 61 68
25 25 25 26 27 28 24 26 29 30 26 22 24 24 25 26 26 25 25 28 30 29 31 34 36 39 43 42 50 49 48 49 52 53 52 50 49 50 53 58 61 66 69 74
24 26 30 31 29 29 31 33 32 35 29 28 27 26 25 26 28 29 30 31 31 33 36 39 43 46 49 50 49 49 50 53 53 54 53 50 50 53 57 61 62 69 67 71
29 32 38 30 30 30 32 32 31 33 28 26 25 24 25 26 28 30 31 32 34 37 40 44 47 50 50 49 49 51 53 54 55 53 50 51 54 57 60 64 66 70 69 70
33 35 34 30 28 26 27 29 27 25 25 24 24 24 26 28 30 30 32 34 37 41 45 48 50 51 51 49 51 53 54 54 52 49 50 55 57 62 64 63 65 69 69 70
34 35 33 22 27 27 27 30 24 22 22 24 26 27 27 27 29 31 34 38 42 45 48 49 50 49 49 50 52 53 53 51 48 51 53 59 62 64 64 63 65 68 69 72
35 35 30 23 26 29 28 19 22 22 25 26 25 25 26 29 32 35 39 42 46 48 48 48 49 49 50 52 54 55 53 50 51 53 58 61 63 63 63 64 66 67 69 71
30 29 25 19 24 22 18 19 19 20 21 23 23 25 29 32 35 39 41 43 44 46 47 48 48 49 52 54 56 53 50 51 54 58 60 61 61 61 63 65 66 69 73 74
28 24 20 16 14 14 13 15 18 19 21 24 26 29 32 35 37 40 43 44 46 47 47 48 50 51 54 53 51 49 51 55 58 60 61 60 61 63 65 68 72 75 76 73
25 21 17 14 13 14 16 18 21 23 26 28 31 33 36 40 42 44 45 47 48 48 49 51 53 54 54 53 52 54 56 59 61 61 62 63 65 68 72 75 76 77 75 71
26 22 22 21 20 21 22 24 26 29 31 34 36 39 42 44 45 46 47 49 50 50 51 53 54 54 54 55 56 58 60 62 62 63 64 66 70 74 76 77 78 76 73 68
27 27 27 26 27 28 29 31 33 36 38 41 44 46 47 47 49 50 51 52 52 53 54 56 56 55 55 56 59 62 64 64 64 65 68 72 75 76 78 78 76 74 69 65
33 32 31 32 33 34 36 38 40 42 44 47 49 50 50 51 52 53 54 55 55 55 57 58 57 55 56 61 65 65 64 64 65 69 72 75 78 80 80 76 71 65 65 64
38 38 37 36 37 39 41 43 45 48 50 51 51 52 53 53 54 55 56 56 57 58 58 56 55 58 64 66 66 65 65 67 69 73 76 79 81 81 80 76 71 65 62 65
43 42 42 42 44 45 47 48 50 53 53 51 53 55 56 55 56 56 56 58 59 57 55 55 59 65 67 66 65 65 67 70 74 77 80 82 81 78 73 73 73 71 67 66
47 47 47 48 49 49 50 52 53 53 52 53 58 58 57 57 57 58 59 58 55 54 57 61 65 69 67 66 66 68 71 74 78 79 79 77 74 72 72 74 74 73 73 71
49 49 49 50 51 51 52 53 53 52 58 59 59 58 59 58 59 60 56 53 55 59 64 68 70 68 66 67 69 71 75 78 77 75 75 74 73 73 74 75 75 72 67 61
50 49 50 49 48 50 51 52 54 56 60 60 59 59 59 60 59 55 54 57 61 66 70 70 68 67 68 70 73 76 77 74 73 74 71 71 74 77 74 70 67 65 63 59
46 46 47 47 47 50 53 56 59 60 56 57 58 60 61 58 54 56 60 64 69 72 68 68 68 70 72 74 75 73 70 71 73 71 72 76 75 73 71 69 65 60 56 52
45 47 49 50 50 51 53 50 52 53 56 59 59 58 55 55 58 62 67 71 70 68 67 68 70 72 74 73 68 67 68 71 75 75 79 78 75 73 69 63 59 56 54 51
44 47 51 51 50 48 47 51 55 57 57 56 56 55 57 60 64 67 68 68 66 67 68 70 73 72 69 65 65 68 71 76 78 81 81 81 75 68 61 59 59 57 55 53
45 46 43 43 46 51 54 56 55 56 57 57 57 60 63 66 68 68 66 66 68 70 71 72 69 66 64 66 68 72 77 79 83 82 84 74 65 59 57 59 57 56 54 52
37 39 45 52 54 55 54 54 55 57 58 61 64 66 67 67 66 66 67 70 71 72 69 65 63 63 64 68 72 77 79 81 82 82 76 65 57 55 56 56 55 52 55 54
47 51 54 54 54 55 56 57 58 61 64 66 65 65 65 66 67 69 70 71 69 65 61 61 61 63 68 73 76 78 80 81 80 75 67 58 54 54 54 52 52 52 50 48
55 55 55 56 57 58 59 61 64 66 65 64 64 65 67 67 67 67 68 66 63 60 60 62 65 70 73 75 77 80 78 80 72 69 60 54 53 52 51 49 49 44 42 40
56 56 57 58 60 62 64 63 63 63 63 65 66 66 67 68 68 66 65 61 59 59 61 66 71 74 75 76 79 77 80 70 67 62 56 53 51 50 47 48 42 39 38 37
58 59 60 60 60 59 60 61 64 66 67 67 67 68 66 65 66 68 62 60 60 63 67 71 74 74 76 78 77 80 69 63 61 57 53 50 47 46 44 44 38 36 36 36

GFSNGP_500_spd_030.txt.gz
Wind_Speed
21 23 27 28 28 30 29 28 26 21 25 20 23 25 27 27 23 22 21 21 24 25 27 30 32 32 32 33 35 37 41 42 45 48 50 52 55 54 56 56 56 54 57 59
23 25 27 27 25 26 28 28 27 26 26 22 25 24 22 23 25 24 25 26 27 29 30 31 30 31 33 37 41 44 46 47 46 48 52 54 53 55 56 55 55 57 60 63
26 25 26 30 24 27 27 27 28 29 27 28 29 27 28 28 29 27 27 28 30 31 32 30 32 35 39 43 46 48 49 49 47 51 51 50 52 55 57 57 58 62 65 66
30 30 33 21 22 25 30 30 32 33 32 29 29 27 25 26 27 29 29 28 30 30 31 33 36 40 44 47 48 49 50 50 50 52 54 53 55 57 57 57 60 63 61 74
31 28 29 23 23 29 35 29 30 29 29 27 25 24 24 24 26 28 28 29 29 31 34 37 40 44 46 47 48 49 50 50 52 54 56 56 55 54 53 56 64 71 70 72
30 28 29 26 27 27 29 29 25 28 28 24 23 24 25 25 27 28 27 28 31 33 37 40 42 44 45 46 48 49 50 52 54 56 56 55 53 55 59 60 63 68 70 71
28 31 32 29 27 29 34 22 26 25 25 25 25 25 26 25 24 25 28 31 34 37 39 41 42 44 46 48 50 51 52 54 55 55 54 53 56 60 63 66 67 68 69 71
32 34 31 28 28 27 25 26 25 24 25 24 23 22 21 22 25 28 30 34 36 38 39 42 44 46 48 49 51 52 54 54 54 53 54 57 60 63 66 66 66 67 69 71
33 30 30 27 24 22 21 20 19 20 20 17 17 20 23 25 29 32 35 37 39 41 43 45 47 49 51 52 52 53 54 54 54 54 56 59 63 65 66 66 67 69 72 74
31 29 27 24 20 18 17 16 16 16 17 20 22 24 28 31 34 36 39 42 43 44 46 48 50 52 53 54 55 56 57 55 53 56 61 64 66 67 67 68 71 74 76 80
33 29 26 24 23 23 20 19 19 21 22 24 27 30 33 36 38 41 43 45 46 47 49 51 53 55 55 56 57 57 55 54 57 62 65 67 68 68 69 72 76 79 82 84
31 27 31 28 27 26 25 25 26 26 27 30 34 37 39 42 45 47 48 49 50 51 52 55 56 56 58 58 57 54 55 59 62 67 70 70 70 70 73 76 79 82 82 81
36 33 33 32 31 31 31 32 33 34 36 38 41 43 46 49 51 51 51 53 53 54 56 58 58 59 60 57 55 57 60 65 70 72 71 70 70 73 75 77 80 78 78 76
38 37 36 33 35 38 38 39 40 42 44 46 48 50 51 53 53 51 53 56 56 57 58 59 61 61 57 56 58 62 67 71 72 70 71 73 76 79 82 84 84 82 73 71
47 43 41 41 42 43 44 45 47 48 50 52 53 54 54 55 54 56 60 59 59 59 59 63 62 59 58 61 65 69 73 71 71 72 73 76 79 82 82 81 81 77 74 74
48 46 45 47 49 49 49 50 52 53 54 54 55 55 55 54 57 60 62 60 59 61 64 63 60 60 62 66 71 73 71 71 73 74 77 79 80 79 80 80 78 79 78 76
41 42 47 50 52 49 49 51 52 53 53 54 53 53 54 58 61 63 60 61 64 65 63 61 62 65 68 71 70 70 70 72 75 77 78 76 77 79 78 78 80 79 77 74
42 41 42 45 48 50 52 52 49 52 51 51 53 56 60 63 58 59 63 66 64 63 62 64 67 70 73 70 70 71 73 75 77 76 75 76 76 76 78 78 78 75 74 65
40 41 43 46 47 48 49 46 52 53 54 56 56 57 54 57 61 65 66 63 63 64 66 69 73 73 71 71 71 73 75 76 75 73 74 73 74 78 76 77 74 74 66 54
39 41 43 45 47 46 46 51 53 51 53 55 53 53 58 63 67 64 64 65 66 68 71 73 73 71 70 71 73 75 75 73 72 70 70 73 76 75 76 74 72 67 57 51
39 40 41 42 41 45 54 59 52 51 49 52 55 61 66 66 64 66 67 68 70 72 71 70 69 70 72 74 74 73 71 68 67 70 72 75 74 75 74 69 68 61 55 53
38 38 40 43 50 56 53 50 48 50 55 59 64 64 63 64 67 69 71 71 71 69 69 70 71 73 73 72 69 67 64 66 69 71 74 74 75 75 69 66 64 59 55 55
40 41 47 51 50 48 49 51 54 57 63 63 63 65 67 69 70 72 72 70 69 69 71 72 72 71 71 68 64 64 66 68 70 73 74 75 77 70 64 64 61 57 54 50
44 44 44 45 48 50 53 59 64 65 65 65 67 68 70 72 72 72 70 69 70 71 72 71 70 70 66 64 65 65 67 69 71 73 77 77 72 64 62 62 58 54 50 47
44 46 49 53 57 61 64 65 65 66 66 67 69 70 71 69 70 70 71 72 72 72 70 68 67 66 65 65 65 67 68 69 71 76 76 72 63 59 60 58 54 49 45 45
51 54 58 63 65 64 64 64 64 66 67 67 68 68 68 71 72 73 73 73 71 71 69 67 65 65 65 65 67 67 67 70 73 74 71 64 56 56 56 54 50 44 45 41
57 61 63 63 63 63 64 65 64 64 65 66 67 68 69 69 69 69 70 70 71 70 68 68 68 66 66 67 67 66 69 71 73 70 65 58 53 53 53 51 45 43 42 37

GFSNGP_500_spd_033.txt.gz
Wind_Speed
19 23 28 27 31 30 29 28 31 26 22 16 20 22 20 23 25 22 22 21 22 24 26 27 28 31 31 33 34 34 35 37 38 39 38 43 48 51 53 54 57 58 58 60
21 23 27 29 28 27 27 28 26 24 22 20 24 24 24 23 24 22 21 23 26 27 27 28 29 30 32 32 32 33 35 39 42 45 47 49 50 51 53 55 55 56 59 57
24 23 28 28 25 25 24 24 26 27 25 26 26 26 28 28 27 26 26 25 26 27 28 29 29 30 30 31 33 36 39 42 44 47 49 50 51 52 54 55 54 58 56 54
29 28 29 15 19 21 22 22 26 27 28 30 29 27 27 28 28 27 26 25 25 27 28 28 28 29 31 33 36 39 41 43 46 48 50 51 52 54 56 55 57 56 54 58
32 30 24 23 21 21 25 21 24 24 25 27 27 27 26 26 25 24 22 22 23 25 25 26 28 30 33 36 38 40 42 45 47 50 51 52 54 55 56 56 55 58 61 65
34 31 25 16 21 21 24 19 20 26 26 26 27 27 26 26 23 20 20 22 23 23 25 28 30 33 36 38 40 42 45 47 49 51 53 55 57 57 56 55 57 60 63 67
33 33 22 21 20 22 25 24 24 26 26 26 26 26 25 23 21 21 21 21 23 25 28 31 34 36 38 40 43 45 48 50 52 54 56 57 58 58 56 56 58 62 66 70
30 30 27 22 23 24 26 25 25 25 24 23 22 22 21 19 19 19 21 23 25 28 32 35 37 39 41 43 45 47 49 52 54 55 57 57 57 54 55 58 61 66 70 71
31 28 26 26 25 24 25 25 23 23 23 18 17 16 15 17 19 21 24 26 30 33 36 39 42 44 45 47 47 49 53 56 57 57 58 56 55 57 60 63 68 71 73 73
30 27 25 27 27 26 25 23 21 18 16 15 15 17 19 21 23 26 28 32 35 39 42 44 46 47 48 49 51 54 57 58 59 59 57 55 57 60 65 69 73 75 76 76
32 29 28 31 28 29 26 25 23 21 20 21 21 22 24 26 29 32 35 39 42 45 47 48 49 50 52 53 56 59 60 60 61 59 58 59 62 66 70 75 77 79 80 82
28 24 29 28 29 30 27 27 28 28 27 27 28 29 31 33 36 39 42 45 48 50 51 52 53 55 55 57 60 61 62 63 61 59 61 64 68 72 74 76 77 79 81 84
34 33 30 32 31 30 30 29 30 31 32 33 35 37 38 40 43 46 49 51 53 54 53 54 55 58 59 60 61 63 65 63 60 62 65 69 73 75 76 75 77 79 82 83
37 35 34 37 34 34 35 34 35 36 37 40 41 44 47 49 50 52 54 55 55 53 54 55 60 61 60 61 65 66 65 63 64 68 71 75 78 80 79 79 80 82 83 84
42 33 32 35 37 42 39 38 39 41 43 46 48 50 52 53 53 54 56 55 54 55 57 61 60 59 63 66 66 64 64 66 70 73 78 80 80 79 80 81 82 82 82 81
44 37 35 38 41 38 49 47 46 48 48 49 51 54 55 53 54 54 55 55 57 60 63 59 61 64 69 66 66 67 68 71 75 77 78 78 78 79 80 80 79 78 79 81
46 50 44 48 45 46 47 49 51 52 51 52 53 53 53 55 50 54 57 60 61 62 59 62 66 70 69 69 70 72 73 76 77 77 76 77 78 78 77 76 75 78 78 74
50 51 45 49 50 51 49 48 49 50 49 49 47 45 56 50 59 59 60 61 60 60 62 67 72 71 71 73 74 76 76 76 76 76 76 77 77 74 72 74 77 73 72 73
53 47 52 54 50 46 44 43 45 44 44 45 48 48 55 62 61 62 65 61 59 63 68 73 72 73 76 76 77 76 75 76 75 75 77 74 70 70 73 73 69 72 72 70
50 47 44 43 39 39 41 42 43 43 43 45 50 56 63 63 62 58 61 61 65 70 74 74 75 76 76 76 75 75 74 74 75 75 72 68 69 72 70 67 69 72 71 66
38 33 34 36 37 39 41 41 40 43 55 59 56 56 58 57 59 60 63 70 74 75 75 75 75 76 75 74 74 73 73 74 74 70 67 69 71 69 65 67 70 72 68 61
32 34 35 36 37 37 39 42 47 57 56 55 55 55 57 59 62 67 72 76 76 75 75 76 75 73 73 72 72 73 74 71 69 68 69 69 68 64 64 68 70 70 64 59
29 31 36 39 41 44 47 51 55 55 54 55 57 60 62 65 70 75 76 76 76 77 77 75 73 72 72 73 74 72 70 70 68 70 69 68 64 63 65 68 70 68 62 58
37 40 44 46 49 50 50 53 55 57 59 62 64 66 69 74 76 76 77 77 77 75 73 73 73 74 74 74 73 73 73 70 70 70 68 67 63 64 67 70 70 66 60 56
47 47 48 50 52 54 55 57 60 62 64 66 69 72 76 76 77 77 76 75 74 74 74 74 74 74 74 75 75 74 72 72 71 69 69 67 65 67 70 70 67 62 57 53
48 50 52 54 57 58 59 60 63 66 69 71 73 73 74 74 74 73 73 73 73 73 73 74 74 75 76 76 75 75 73 72 71 71 70 66 67 69 70 67 62 57 52 49
52 55 57 59 60 61 63 64 66 67 69 70 71 70 70 71 72 72 72 72 73 74 76 77 78 78 78 78 76 75 74 73 72 70 67 67 69 68 66 61 56 51 47 45

GFSNGP_500_spd_036.txt.gz
Wind_Speed
24 24 31 30 31 30 32 29 31 30 28 21 23 23 22 21 21 23 23 22 22 25 26 26 28 29 29 29 31 33 34 35 35 37 39 37 39 43 46 48 51 54 55 56
23 23 27 29 26 32 33 33 32 28 29 21 21 24 24 23 24 25 24 22 22 25 26 27 27 28 30 31 31 32 33 34 35 38 40 42 44 47 49 52 54 56 57 59
24 22 25 28 24 23 25 24 24 27 24 25 26 27 26 26 28 30 30 27 26 28 28 27 27 29 30 32 33 32 33 36 38 40 42 44 46 48 51 53 56 58 59 61
27 26 31 13 16 22 26 23 23 25 24 28 28 30 29 29 30 30 30 29 27 28 28 29 29 29 30 30 31 33 35 37 39 42 44 46 49 51 53 56 57 59 60 62
31 29 24 23 19 21 22 19 23 22 29 32 31 30 30 28 28 26 26 25 25 24 25 26 27 27 28 30 32 34 36 39 42 44 47 49 51 53 56 58 60 61 62 61
33 29 23 14 16 18 24 12 18 23 26 28 30 28 26 28 27 26 24 23 22 23 24 24 24 26 28 30 33 36 39 42 44 46 49 51 53 56 58 60 61 62 62 60
32 31 22 17 22 21 26 8 26 22 25 27 27 26 26 24 23 23 22 23 23 22 22 24 25 27 30 33 37 40 42 45 47 50 51 54 57 59 61 61 62 61 59 61
34 33 25 14 22 26 18 23 24 24 23 25 26 25 24 22 21 21 21 21 20 21 23 25 28 31 34 38 41 43 45 47 49 51 53 57 60 61 62 63 62 60 62 65
35 33 24 22 24 26 24 25 24 24 23 23 22 22 21 20 21 20 20 20 22 24 26 29 33 37 40 44 46 48 50 52 53 55 57 60 62 63 65 64 63 63 67 69
34 29 21 18 23 28 29 28 27 24 24 22 21 20 20 19 20 21 23 25 27 29 32 36 40 43 46 48 50 51 53 55 57 59 61 62 64 65 65 64 64 67 71 74
34 27 21 22 27 30 34 31 27 27 26 24 23 23 23 24 26 27 29 31 34 37 40 43 46 49 51 53 53 55 56 59 60 60 62 64 66 66 66 66 68 71 75 79
31 23 26 29 31 33 34 32 30 29 28 28 29 29 30 31 32 34 36 38 40 43 47 50 52 53 54 55 56 57 59 61 59 61 65 66 66 66 68 71 73 77 80 83
36 34 34 29 30 34 34 32 31 32 32 32 33 34 35 37 39 40 42 45 47 50 53 54 55 55 56 57 59 59 61 60 61 65 68 68 67 70 72 74 77 79 82 83
37 35 32 32 31 38 36 38 35 35 36 38 39 40 41 43 45 46 48 50 53 55 55 56 56 56 57 60 59 60 61 62 65 70 71 71 72 74 77 79 81 82 84 83
35 35 38 38 35 31 31 33 35 35 40 46 47 46 46 47 49 51 53 53 55 54 57 56 53 58 60 60 62 62 63 65 70 74 74 75 76 78 80 81 81 83 82 81
34 38 42 39 35 35 35 37 38 40 42 43 51 54 56 57 52 54 55 56 56 55 55 55 61 63 65 66 64 64 67 70 75 77 77 78 79 81 80 80 80 80 79 76
32 40 42 42 42 39 39 44 46 49 49 47 49 52 54 54 55 55 52 52 53 66 65 64 64 74 69 66 65 66 72 76 78 79 80 80 80 79 79 78 77 77 74 75
40 42 44 45 46 47 46 49 46 47 46 54 53 51 48 48 50 53 60 53 55 59 63 73 78 69 70 68 68 71 76 79 80 80 80 79 78 77 77 77 75 72 73 73
40 41 43 44 46 49 50 48 50 52 50 51 49 45 37 52 45 53 57 68 69 66 70 71 71 71 71 68 72 78 79 80 80 79 77 77 76 76 75 74 71 72 72 70
40 41 43 43 46 48 48 48 50 47 40 36 42 51 51 49 58 58 58 64 68 72 72 69 69 69 69 75 79 79 79 79 78 77 76 76 75 75 73 71 71 71 70 68
36 43 43 45 48 38 29 31 33 37 45 49 43 45 53 59 59 60 61 64 66 67 68 71 71 72 78 79 80 80 79 77 77 76 76 75 75 74 73 72 72 70 69 68
45 41 37 37 37 37 38 42 42 42 42 43 50 56 58 60 60 62 64 66 69 71 73 73 77 79 80 81 80 79 77 78 77 77 77 76 76 74 74 73 71 70 70 68
29 30 32 33 35 36 37 40 44 47 50 51 53 55 57 60 63 67 70 72 74 75 78 81 82 83 81 79 79 79 79 78 77 77 77 77 76 75 75 73 72 72 70 66
27 30 33 36 40 43 44 46 47 50 53 55 57 60 63 67 70 73 76 78 81 82 83 84 84 81 80 80 80 79 79 79 79 80 80 79 78 76 74 73 73 71 66 64
39 39 38 42 45 47 49 51 53 56 59 61 64 67 70 72 74 77 80 82 83 84 84 83 82 81 80 80 80 82 83 83 83 83 81 79 77 75 74 72 68 65 64 64
43 46 48 51 52 53 55 57 59 62 64 66 68 70 73 75 77 79 81 83 82 81 80 80 81 82 84 85 86 87 87 86 85 83 81 78 75 72 68 66 64 64 64 61
47 49 51 53 55 57 58 60 63 65 67 70 72 74 76 78 79 78 76 76 77 80 82 85 86 87 88 88 88 88 87 85 82 79 76 73 70 68 67 67 65 63 59 54

GFSNGP_500_spd_042.txt.gz
Wind_Speed
47 36 35 29 26 23 29 25 34 36 36 30 27 24 29 11 24 35 34 27 28 26 26 27 27 28 31 34 35 38 38 35 31 32 33 35 36 35 36 37 39 41 43 46
47 42 42 36 31 27 25 28 33 31 29 23 21 31 33 37 29 27 28 31 27 29 33 27 27 27 27 28 32 34 37 35 33 33 35 35 36 37 37 39 41 44 47 50
54 47 44 47 43 35 28 26 30 30 29 30 31 28 30 37 38 31 30 27 30 33 34 32 32 31 31 32 32 33 34 33 34 34 34 34 35 36 38 40 43 46 50 52
48 41 51 44 40 39 42 40 40 36 32 31 29 31 32 34 35 29 28 27 30 33 37 37 36 36 35 34 35 34 33 34 34 34 33 34 36 38 41 44 47 50 53 55
58 52 47 47 40 37 35 32 27 25 31 27 24 23 34 32 28 31 32 33 33 33 33 36 36 35 35 35 35 34 34 34 34 33 34 36 38 41 44 48 51 53 55 58
51 51 54 47 37 32 30 35 23 32 30 30 29 36 35 28 27 27 31 32 30 31 31 33 34 34 35 34 34 34 34 34 33 34 36 38 41 45 49 51 54 56 59 60
58 55 50 42 32 30 33 26 20 22 21 27 32 41 32 27 30 31 30 30 31 30 30 31 32 33 33 33 33 34 34 34 35 36 39 42 46 50 53 55 57 58 60 61
47 52 51 39 36 36 27 19 25 29 26 33 36 37 33 31 32 32 31 30 30 29 29 30 30 30 31 32 33 33 35 37 38 41 45 49 53 56 59 59 59 59 62 63
45 47 45 40 34 29 23 27 30 28 26 33 36 35 33 33 34 34 33 31 30 28 29 30 30 30 32 32 34 36 39 42 45 48 51 55 58 60 61 60 60 61 63 63
35 35 37 26 36 38 36 35 30 30 36 33 40 41 35 35 36 34 33 33 32 30 30 31 32 32 33 37 39 42 45 48 51 54 57 60 62 64 63 62 59 61 62 69
44 46 46 43 24 36 42 39 39 33 37 36 38 38 39 38 37 36 35 34 34 34 34 33 34 37 40 43 45 48 51 53 56 58 61 62 64 64 64 63 63 66 72 75
47 37 34 35 42 40 35 41 37 37 37 35 35 35 38 39 38 38 38 38 37 38 39 41 42 44 47 49 51 53 56 58 60 63 65 67 67 66 65 68 72 75 77 80
43 43 46 40 36 46 45 42 40 45 39 37 35 34 34 36 38 39 41 40 41 43 45 48 50 51 53 55 58 60 61 63 69 70 69 69 67 65 67 70 71 72 80 82
42 40 46 43 47 47 48 52 48 34 36 39 41 35 35 39 40 41 41 43 44 45 47 51 54 56 60 63 65 66 68 69 68 66 70 68 66 69 70 73 76 82 82 82
31 35 37 39 42 42 43 49 46 43 44 40 42 40 43 40 43 45 45 45 45 44 47 51 53 57 61 65 66 65 67 66 63 68 71 74 78 76 75 79 81 80 83 84
32 31 31 33 35 37 36 40 42 50 50 45 43 41 41 37 40 44 46 46 43 47 50 52 54 57 62 63 66 67 66 64 68 77 80 81 82 80 81 81 81 84 82 82
24 23 26 27 28 38 33 27 27 29 33 39 40 44 41 44 44 51 52 51 55 57 56 56 59 64 63 65 68 72 74 73 76 81 83 82 82 83 81 81 83 83 84 86
28 29 31 31 33 29 30 34 36 36 36 37 40 44 47 52 52 48 49 54 58 57 56 64 72 68 70 71 74 76 76 76 80 81 80 82 84 84 83 85 85 87 90 93
31 32 34 37 37 37 38 39 37 40 43 44 46 48 50 49 50 51 55 58 60 59 69 69 66 66 67 63 63 67 73 79 81 81 83 85 86 88 89 90 91 93 94 91
35 36 37 39 39 37 38 38 39 40 43 44 46 48 50 52 52 54 57 61 60 58 52 51 55 57 60 65 69 72 76 78 79 80 82 86 88 90 92 93 95 95 91 88
38 38 36 36 38 40 40 43 46 48 50 47 52 56 57 56 55 54 56 53 52 55 58 59 61 64 66 68 70 73 74 77 80 83 86 89 91 93 96 96 94 92 91 90
32 37 40 40 38 39 39 42 46 47 51 57 58 55 50 49 48 50 53 55 56 58 61 64 66 67 69 71 73 77 80 83 85 88 91 94 96 97 95 95 94 93 91 89
35 36 36 38 38 40 43 45 44 46 47 44 46 48 51 54 56 56 56 58 59 61 63 65 68 71 74 77 80 83 86 88 91 94 96 96 95 95 95 93 91 87 85 82
28 30 32 35 38 40 42 42 44 45 47 49 50 51 52 52 53 54 56 59 62 65 69 72 75 78 81 84 86 88 91 93 93 94 95 95 94 91 88 85 82 80 79 79
36 36 37 38 39 39 40 41 43 44 46 48 49 52 54 57 60 62 64 67 70 72 75 78 80 83 86 88 89 90 93 94 94 93 90 87 84 82 81 81 81 81 79 78
37 39 41 44 45 47 49 51 52 53 55 57 59 62 64 66 68 70 72 74 76 78 80 82 84 85 87 88 89 89 88 85 83 80 78 78 79 79 79 78 78 79 78 75
45 48 50 53 55 56 57 58 59 60 62 63 64 66 68 70 71 73 75 77 78 79 81 82 82 82 81 80 78 76 75 75 75 76 76 76 77 77 77 78 78 76 72 65

GFSNGP_500_spd_045.txt.gz
Wind_Speed
46 40 44 38 32 35 30 32 38 32 33 27 32 33 31 36 34 32 32 25 25 22 18 17 22 26 30 32 31 30 32 32 32 34 32 33 33 33 33 34 35 35 35 36
49 46 45 48 48 31 34 31 28 34 32 27 27 28 26 27 32 33 27 34 25 27 27 22 19 24 27 30 32 34 33 33 32 34 36 35 35 35 37 35 35 34 34 36
48 45 43 52 50 48 41 38 29 34 32 28 27 30 32 30 36 34 35 31 24 28 31 28 23 25 29 32 33 34 34 34 34 33 31 34 36 36 35 34 34 35 37 41
51 48 52 43 45 49 48 37 34 36 33 32 31 33 32 33 41 35 37 30 24 28 31 31 32 32 34 35 34 33 34 36 37 35 33 33 32 33 34 35 36 38 42 46
47 51 48 48 49 42 48 46 41 41 39 34 33 37 43 37 35 41 39 37 32 30 32 31 31 33 32 31 31 33 34 35 35 35 35 35 36 36 36 37 39 43 48 51
62 49 49 47 48 43 46 50 45 46 42 45 38 39 41 37 35 35 33 35 33 32 34 33 32 31 32 30 31 33 34 35 35 36 37 38 37 38 39 42 45 50 53 57
55 56 41 46 41 36 45 41 33 32 39 42 36 34 35 40 41 41 37 35 32 33 35 35 33 33 32 31 32 33 35 35 36 38 39 38 40 41 44 47 51 54 58 60
48 44 44 44 35 39 43 36 27 30 32 27 31 40 41 37 37 39 34 34 34 35 35 36 34 33 32 32 33 34 35 37 39 39 39 41 43 46 49 52 56 60 62 63
32 42 40 40 40 40 35 40 42 39 40 38 40 37 40 35 42 42 36 34 37 37 37 37 36 35 34 33 34 36 39 39 40 41 43 45 47 50 53 57 61 63 65 66
38 28 44 47 44 40 46 43 40 30 40 35 36 35 38 36 40 40 40 41 41 40 39 39 37 35 35 35 38 40 41 42 43 46 48 50 53 57 60 63 64 68 71 71
45 37 31 37 46 48 43 44 47 47 45 42 44 41 43 39 40 42 44 44 43 41 40 40 37 37 37 39 41 41 43 45 49 52 54 56 60 64 66 68 70 75 73 75
40 37 42 34 40 42 44 46 49 49 45 47 48 51 39 36 38 40 41 44 45 44 42 40 40 40 41 43 44 45 47 50 54 58 60 62 66 70 72 73 71 71 72 74
39 40 41 44 44 40 36 30 36 40 50 52 44 46 46 44 40 41 43 42 42 44 44 44 43 43 44 46 48 49 52 57 60 62 64 66 69 72 72 70 69 70 75 80
35 38 37 37 44 47 41 37 36 45 45 43 42 48 46 50 48 45 43 40 38 41 43 43 43 45 47 50 51 52 55 58 62 63 62 63 65 67 67 70 73 78 81 85
31 32 34 30 31 36 39 43 43 45 46 49 49 51 56 51 42 44 46 45 45 44 44 46 48 50 53 53 54 56 59 62 64 66 68 69 69 71 74 81 83 85 86 85
24 27 30 32 32 31 34 37 40 43 47 48 51 51 51 53 47 47 49 47 47 44 42 47 50 56 57 58 60 62 64 67 69 72 74 76 78 81 84 85 86 85 83 83
23 25 24 27 30 31 30 31 33 34 40 44 47 46 51 58 54 53 55 45 41 49 47 50 56 55 60 59 61 65 70 75 74 76 79 80 81 82 84 84 84 84 84 84
18 22 24 27 27 29 31 32 33 36 39 38 36 37 37 36 37 39 44 49 47 49 58 60 58 60 64 65 66 71 76 73 72 73 74 76 78 79 80 81 81 82 83 85
23 28 31 35 38 40 40 42 42 42 40 41 43 45 44 47 49 51 50 51 56 59 60 62 64 65 67 70 74 72 66 65 66 69 72 75 76 78 79 80 82 85 87 90
29 32 36 39 41 42 43 43 43 44 44 42 40 42 45 47 45 50 53 53 58 61 62 63 65 66 65 65 62 65 66 68 71 72 73 75 77 78 81 84 86 88 92 95
32 35 39 40 42 44 39 36 35 37 39 42 42 46 51 54 53 53 53 57 61 61 61 58 59 59 59 65 66 68 70 70 71 73 75 78 80 83 86 90 93 95 97 97
30 33 36 37 38 39 41 44 44 45 44 45 46 47 49 49 51 54 58 58 56 55 54 57 60 62 64 64 65 67 69 72 75 78 81 84 88 91 93 95 97 97 97 94
33 35 37 39 40 40 40 41 41 41 41 42 44 46 48 50 51 52 53 55 57 59 60 61 62 64 66 69 72 74 78 81 84 86 89 91 92 94 95 95 94 91 88 85
25 27 30 31 32 33 35 38 40 42 44 46 47 48 50 51 53 54 56 57 59 62 65 67 70 73 76 78 80 82 84 86 87 89 90 91 91 90 89 87 84 82 81 81
25 26 28 30 33 35 39 41 44 47 49 51 53 56 59 62 63 65 67 69 69 70 71 72 74 76 78 80 82 84 85 86 87 86 85 84 82 81 80 80 80 81 80 80
29 31 33 36 39 42 44 47 48 51 54 57 60 64 67 67 69 70 70 71 73 75 76 77 77 77 78 78 78 79 79 78 77 76 75 76 77 78 79 80 80 79 77 75
39 42 44 47 49 51 54 57 59 60 62 64 65 65 67 68 68 68 69 70 70 71 71 71 71 71 71 71 70 69 69 70 72 73 74 74 74 73 72 71 70 71 70 69

GFSNGP_500_spd_048.txt.gz
Wind_Speed
51 44 44 44 42 39 42 41 43 36 35 28 33 33 33 32 37 39 33 34 35 28 17 20 20 22 25 27 27 28 27 26 27 28 29 26 28 29 30 31 29 31 33 33
54 52 48 48 46 45 45 44 44 43 39 30 32 32 32 30 36 38 37 37 34 28 30 29 26 21 23 29 31 32 32 32 30 29 30 29 29 30 33 33 35 35 36 37
52 49 49 54 50 49 46 46 46 46 38 24 31 33 36 36 38 39 37 34 30 30 30 30 28 27 26 29 30 32 33 34 32 30 30 30 31 33 34 36 38 37 39 39
50 53 49 48 48 48 48 47 46 46 38 34 31 35 38 38 37 31 36 41 35 34 32 35 30 27 29 33 35 35 36 34 34 34 33 34 34 34 36 36 37 38 39 39
36 55 50 52 45 43 47 46 50 47 40 40 38 38 37 34 35 36 37 38 38 33 38 32 26 28 29 30 32 33 34 34 35 36 37 37 35 37 39 38 39 40 40 42
30 41 52 47 43 45 50 47 48 48 50 47 41 42 39 37 37 40 41 40 39 34 31 33 33 32 32 32 32 32 33 35 36 38 38 38 41 42 42 43 43 44 45 47
53 37 33 53 47 45 47 50 48 46 48 50 50 51 49 43 46 43 43 43 37 36 37 36 38 34 32 33 33 33 33 34 35 37 40 43 44 44 45 46 47 48 50 52
51 46 21 20 35 52 45 49 49 49 47 47 55 55 50 43 38 41 44 43 40 36 35 39 39 37 34 34 34 34 35 36 37 39 41 42 43 45 47 48 50 52 54 57
57 55 30 25 22 50 47 40 40 43 45 50 45 46 43 40 32 39 44 43 43 41 43 44 42 41 38 37 37 38 39 39 39 41 42 43 45 47 48 51 53 55 58 61
35 39 37 35 22 38 40 42 36 35 36 44 47 42 44 43 38 39 45 45 42 43 41 40 42 44 43 41 40 42 43 43 43 43 44 46 46 49 52 55 57 60 62 65
26 26 35 32 32 28 37 34 35 39 38 35 45 48 52 46 44 48 41 41 45 44 46 44 46 47 47 45 44 44 46 46 45 46 47 49 52 55 58 60 62 64 67 71
33 31 33 32 33 31 29 41 48 47 44 37 38 43 42 41 43 41 40 39 40 39 42 40 41 44 46 48 47 47 47 47 48 51 53 55 58 60 62 65 68 70 71 71
34 30 28 29 29 30 32 40 39 37 47 47 49 52 47 51 53 50 48 53 52 49 48 46 43 41 42 46 47 47 48 50 52 56 59 61 63 64 64 66 69 70 70 73
33 34 31 28 28 26 24 33 40 44 39 32 48 58 53 55 54 51 51 55 50 52 52 54 50 49 47 49 50 52 54 56 58 59 62 63 66 67 67 68 71 75 79 82
30 29 31 28 27 25 23 25 29 37 39 43 39 42 60 61 60 55 53 49 52 53 54 52 51 51 51 52 50 47 51 55 58 64 63 65 65 68 71 75 79 81 82 83
30 28 28 27 28 26 25 27 29 31 34 35 38 43 48 51 56 57 54 55 54 51 52 49 50 50 45 50 55 58 60 55 57 61 65 67 71 74 79 82 81 81 81 82
25 26 25 24 24 24 25 28 33 35 38 37 37 39 42 47 48 50 50 52 50 56 61 65 57 49 55 55 55 55 59 66 70 68 70 74 75 78 80 80 78 77 78 80
29 28 25 25 29 25 26 29 30 31 34 36 35 35 38 43 43 47 42 43 42 44 46 50 54 54 52 56 59 69 69 70 73 76 77 78 79 78 74 72 75 77 77 77
31 30 35 31 31 33 34 38 39 40 41 43 43 45 45 47 45 45 46 48 49 53 59 55 53 56 59 62 68 69 72 76 78 78 77 74 73 72 72 73 74 75 77 79
32 36 37 37 38 38 36 40 40 39 39 38 39 41 42 44 47 48 49 51 54 58 55 58 61 63 65 70 71 72 73 73 72 70 69 69 70 72 72 75 77 80 84 88
33 31 32 32 27 26 31 34 36 37 37 38 38 40 41 42 46 50 52 53 56 58 61 64 65 66 67 68 68 68 66 66 67 69 71 73 75 77 81 84 87 90 93 95
26 30 31 28 30 33 34 35 37 38 40 42 43 43 44 46 48 50 53 54 55 56 57 60 62 63 65 66 68 69 70 72 74 76 78 81 84 86 89 91 92 93 94 95
38 38 33 32 32 33 33 33 33 33 34 35 36 37 39 41 43 45 48 50 52 54 57 60 62 65 68 71 74 77 79 81 82 83 84 86 88 89 90 91 91 91 89 88
23 21 21 23 25 26 28 29 30 32 34 35 38 41 43 45 48 51 54 56 59 63 66 68 70 72 74 76 77 79 81 82 84 85 86 86 86 86 85 84 83 82 82 82
19 22 25 28 30 32 34 36 39 41 44 47 49 52 54 56 59 61 64 66 68 69 71 73 75 76 77 78 79 79 79 79 79 78 77 76 76 76 76 77 78 78 78 77
26 29 33 36 39 41 44 46 49 51 54 56 58 60 63 65 66 68 69 71 72 73 74 74 73 72 71 70 70 70 69 68 67 68 69 70 72 72 72 70 69 69 68 68
37 40 42 45 48 50 52 54 56 58 60 62 63 64 65 65 66 66 66 66 66 65 65 64 63 62 61 60 60 61 62 63 64 64 64 62 61 59 58 59 60 61 62 61